Year,Month,Day,Hour,Minute,Value (Times are PST for temperature in C)
2009,09,20,00,00,13.10
2009,09,20,00,01,13.10
2009,09,20,00,02,13.10
2009,09,20,00,03,13.10
2009,09,20,00,04,13.10
2009,09,20,00,05,13.10
2009,09,20,00,06,13.10
2009,09,20,00,07,13.10
2009,09,20,00,08,13.20
2009,09,20,00,09,13.20
2009,09,20,00,10,13.20
2009,09,20,00,11,13.20
2009,09,20,00,12,13.20
2009,09,20,00,13,13.20
2009,09,20,00,14,13.20
2009,09,20,00,15,13.20
2009,09,20,00,16,13.20
2009,09,20,00,17,13.20
2009,09,20,00,18,13.20
2009,09,20,00,19,13.20
2009,09,20,00,20,13.20
2009,09,20,00,21,13.30
2009,09,20,00,22,13.30
2009,09,20,00,23,13.30
2009,09,20,00,24,13.30
2009,09,20,00,25,13.30
2009,09,20,00,26,13.30
2009,09,20,00,27,13.30
2009,09,20,00,28,13.30
2009,09,20,00,29,13.30
2009,09,20,00,30,13.30
2009,09,20,00,31,13.30
2009,09,20,00,32,13.30
2009,09,20,00,33,13.30
2009,09,20,00,34,13.30
2009,09,20,00,35,13.30
2009,09,20,00,36,13.30
2009,09,20,00,37,13.30
2009,09,20,00,38,13.30
2009,09,20,00,39,13.30
2009,09,20,00,40,13.30
2009,09,20,00,41,13.30
2009,09,20,00,42,13.30
2009,09,20,00,43,13.30
2009,09,20,00,44,13.30
2009,09,20,00,45,13.30
2009,09,20,00,46,13.30
2009,09,20,00,47,13.30
2009,09,20,00,48,13.30
2009,09,20,00,49,13.30
2009,09,20,00,50,13.30
2009,09,20,00,51,13.30
2009,09,20,00,52,13.30
2009,09,20,00,53,13.30
2009,09,20,00,54,13.30
2009,09,20,00,55,13.30
2009,09,20,00,56,13.30
2009,09,20,00,57,13.30
2009,09,20,00,58,13.30
2009,09,20,00,59,13.30
2009,09,20,01,00,13.30
2009,09,20,01,01,13.20
2009,09,20,01,02,13.20
2009,09,20,01,03,13.20
2009,09,20,01,04,13.10
2009,09,20,01,05,13.10
2009,09,20,01,06,13.10
2009,09,20,01,07,13.10
2009,09,20,01,08,13.00
2009,09,20,01,09,13.00
2009,09,20,01,10,13.00
2009,09,20,01,11,12.90
2009,09,20,01,12,12.90
2009,09,20,01,13,12.90
2009,09,20,01,14,12.90
2009,09,20,01,15,12.90
2009,09,20,01,16,12.90
2009,09,20,01,17,12.90
2009,09,20,01,18,12.90
2009,09,20,01,19,12.90
2009,09,20,01,20,12.90
2009,09,20,01,21,13.00
2009,09,20,01,22,13.00
2009,09,20,01,23,13.00
2009,09,20,01,24,13.00
2009,09,20,01,25,13.10
2009,09,20,01,26,13.10
2009,09,20,01,27,13.00
2009,09,20,01,28,13.10
2009,09,20,01,29,13.00
2009,09,20,01,30,13.00
2009,09,20,01,31,13.00
2009,09,20,01,32,13.00
2009,09,20,01,33,12.90
2009,09,20,01,34,12.90
2009,09,20,01,35,13.00
2009,09,20,01,36,13.00
2009,09,20,01,37,13.00
2009,09,20,01,38,13.00
2009,09,20,01,39,13.00
2009,09,20,01,40,13.00
2009,09,20,01,41,13.00
2009,09,20,01,42,12.90
2009,09,20,01,43,12.90
2009,09,20,01,44,12.90
2009,09,20,01,45,12.90
2009,09,20,01,46,12.90
2009,09,20,01,47,12.90
2009,09,20,01,48,12.80
2009,09,20,01,49,12.80
2009,09,20,01,50,12.80
2009,09,20,01,51,12.80
2009,09,20,01,52,12.80
2009,09,20,01,53,12.80
2009,09,20,01,54,12.80
2009,09,20,01,55,12.80
2009,09,20,01,56,12.70
2009,09,20,01,57,12.70
2009,09,20,01,58,12.70
2009,09,20,01,59,12.70
2009,09,20,02,00,12.70
2009,09,20,02,01,12.70
2009,09,20,02,02,12.70
2009,09,20,02,03,12.70
2009,09,20,02,04,12.70
2009,09,20,02,05,12.70
2009,09,20,02,06,12.70
2009,09,20,02,07,12.60
2009,09,20,02,08,12.60
2009,09,20,02,09,12.60
2009,09,20,02,10,12.60
2009,09,20,02,11,12.60
2009,09,20,02,12,12.60
2009,09,20,02,13,12.60
2009,09,20,02,14,12.60
2009,09,20,02,15,12.70
2009,09,20,02,16,12.70
2009,09,20,02,17,12.70
2009,09,20,02,18,12.70
2009,09,20,02,19,12.60
2009,09,20,02,20,12.60
2009,09,20,02,21,12.60
2009,09,20,02,22,12.60
2009,09,20,02,23,12.60
2009,09,20,02,24,12.50
2009,09,20,02,25,12.50
2009,09,20,02,26,12.50
2009,09,20,02,27,12.40
2009,09,20,02,28,12.40
2009,09,20,02,29,12.40
2009,09,20,02,30,12.40
2009,09,20,02,31,12.30
2009,09,20,02,32,12.30
2009,09,20,02,33,12.30
2009,09,20,02,34,12.30
2009,09,20,02,35,12.30
2009,09,20,02,36,12.30
2009,09,20,02,37,12.30
2009,09,20,02,38,12.40
2009,09,20,02,39,12.40
2009,09,20,02,40,12.40
2009,09,20,02,41,12.40
2009,09,20,02,42,12.40
2009,09,20,02,43,12.40
2009,09,20,02,44,12.40
2009,09,20,02,45,12.40
2009,09,20,02,46,12.40
2009,09,20,02,47,12.40
2009,09,20,02,48,12.40
2009,09,20,02,49,12.40
2009,09,20,02,50,12.40
2009,09,20,02,51,12.40
2009,09,20,02,52,12.40
2009,09,20,02,53,12.40
2009,09,20,02,54,12.40
2009,09,20,02,55,12.30
2009,09,20,02,56,12.30
2009,09,20,02,57,12.30
2009,09,20,02,58,12.30
2009,09,20,02,59,12.20
2009,09,20,03,00,12.20
2009,09,20,03,01,12.20
2009,09,20,03,02,12.20
2009,09,20,03,03,12.20
2009,09,20,03,04,12.20
2009,09,20,03,05,12.20
2009,09,20,03,06,12.10
2009,09,20,03,07,12.10
2009,09,20,03,08,12.10
2009,09,20,03,09,12.10
2009,09,20,03,10,12.10
2009,09,20,03,11,12.10
2009,09,20,03,12,12.10
2009,09,20,03,13,12.20
2009,09,20,03,14,12.20
2009,09,20,03,15,12.20
2009,09,20,03,16,12.20
2009,09,20,03,17,12.20
2009,09,20,03,18,12.20
2009,09,20,03,19,12.30
2009,09,20,03,20,12.30
2009,09,20,03,21,12.30
2009,09,20,03,22,12.30
2009,09,20,03,23,12.30
2009,09,20,03,24,12.20
2009,09,20,03,25,12.20
2009,09,20,03,26,12.20
2009,09,20,03,27,12.20
2009,09,20,03,28,12.20
2009,09,20,03,29,12.20
2009,09,20,03,30,12.20
2009,09,20,03,31,12.20
2009,09,20,03,32,12.20
2009,09,20,03,33,12.20
2009,09,20,03,34,12.20
2009,09,20,03,35,12.20
2009,09,20,03,36,12.20
2009,09,20,03,37,12.20
2009,09,20,03,38,12.20
2009,09,20,03,39,12.20
2009,09,20,03,40,12.20
2009,09,20,03,41,12.20
2009,09,20,03,42,12.20
2009,09,20,03,43,12.30
2009,09,20,03,44,12.30
2009,09,20,03,45,12.30
2009,09,20,03,46,12.30
2009,09,20,03,47,12.30
2009,09,20,03,48,12.30
2009,09,20,03,49,12.30
2009,09,20,03,50,12.30
2009,09,20,03,51,12.30
2009,09,20,03,52,12.30
2009,09,20,03,53,12.30
2009,09,20,03,54,12.30
2009,09,20,03,55,12.30
2009,09,20,03,56,12.30
2009,09,20,03,57,12.30
2009,09,20,03,58,12.30
2009,09,20,03,59,12.30
2009,09,20,04,00,12.30
2009,09,20,04,01,12.30
2009,09,20,04,02,12.30
2009,09,20,04,03,12.20
2009,09,20,04,04,12.20
2009,09,20,04,05,12.20
2009,09,20,04,06,12.20
2009,09,20,04,07,12.20
2009,09,20,04,08,12.20
2009,09,20,04,09,12.20
2009,09,20,04,10,12.20
2009,09,20,04,11,12.10
2009,09,20,04,12,12.10
2009,09,20,04,13,12.10
2009,09,20,04,14,12.00
2009,09,20,04,15,12.00
2009,09,20,04,16,11.90
2009,09,20,04,17,11.90
2009,09,20,04,18,11.80
2009,09,20,04,19,11.70
2009,09,20,04,20,11.70
2009,09,20,04,21,11.60
2009,09,20,04,22,11.60
2009,09,20,04,23,11.60
2009,09,20,04,24,11.50
2009,09,20,04,25,11.40
2009,09,20,04,26,11.40
2009,09,20,04,27,11.30
2009,09,20,04,28,11.20
2009,09,20,04,29,11.10
2009,09,20,04,30,11.10
2009,09,20,04,31,11.00
2009,09,20,04,32,10.90
2009,09,20,04,33,10.80
2009,09,20,04,34,10.80
2009,09,20,04,35,10.70
2009,09,20,04,36,10.70
2009,09,20,04,37,10.60
2009,09,20,04,38,10.60
2009,09,20,04,39,10.60
2009,09,20,04,40,10.50
2009,09,20,04,41,10.40
2009,09,20,04,42,10.30
2009,09,20,04,43,10.30
2009,09,20,04,44,10.20
2009,09,20,04,45,10.20
2009,09,20,04,46,10.10
2009,09,20,04,47,10.10
2009,09,20,04,48,10.10
2009,09,20,04,49,10.10
2009,09,20,04,50,10.10
2009,09,20,04,51,10.10
2009,09,20,04,52,10.10
2009,09,20,04,53,10.10
2009,09,20,04,54,10.10
2009,09,20,04,55,10.00
2009,09,20,04,56,10.00
2009,09,20,04,57,10.00
2009,09,20,04,58,9.90
2009,09,20,04,59,9.90
2009,09,20,05,00,9.90
2009,09,20,05,01,9.80
2009,09,20,05,02,9.80
2009,09,20,05,03,9.80
2009,09,20,05,04,9.80
2009,09,20,05,05,9.70
2009,09,20,05,06,9.70
2009,09,20,05,07,9.70
2009,09,20,05,08,9.70
2009,09,20,05,09,9.60
2009,09,20,05,10,9.60
2009,09,20,05,11,9.60
2009,09,20,05,12,9.50
2009,09,20,05,13,9.50
2009,09,20,05,14,9.40
2009,09,20,05,15,9.40
2009,09,20,05,16,9.30
2009,09,20,05,17,9.30
2009,09,20,05,18,9.30
2009,09,20,05,19,9.20
2009,09,20,05,20,9.20
2009,09,20,05,21,9.20
2009,09,20,05,22,9.20
2009,09,20,05,23,9.20
2009,09,20,05,24,9.10
2009,09,20,05,25,9.10
2009,09,20,05,26,9.10
2009,09,20,05,27,9.10
2009,09,20,05,28,9.10
2009,09,20,05,29,9.10
2009,09,20,05,30,9.10
2009,09,20,05,31,9.10
2009,09,20,05,32,9.10
2009,09,20,05,33,9.20
2009,09,20,05,34,9.20
2009,09,20,05,35,9.20
2009,09,20,05,36,9.20
2009,09,20,05,37,9.20
2009,09,20,05,38,9.20
2009,09,20,05,39,9.20
2009,09,20,05,40,9.20
2009,09,20,05,41,9.20
2009,09,20,05,42,9.20
2009,09,20,05,43,9.20
2009,09,20,05,44,9.30
2009,09,20,05,45,9.30
2009,09,20,05,46,9.30
2009,09,20,05,47,9.30
2009,09,20,05,48,9.30
2009,09,20,05,49,9.30
2009,09,20,05,50,9.30
2009,09,20,05,51,9.30
2009,09,20,05,52,9.30
2009,09,20,05,53,9.30
2009,09,20,05,54,9.30
2009,09,20,05,55,9.30
2009,09,20,05,56,9.30
2009,09,20,05,57,9.30
2009,09,20,05,58,9.30
2009,09,20,05,59,9.30
2009,09,20,06,00,9.30
2009,09,20,06,01,9.20
2009,09,20,06,02,9.20
2009,09,20,06,03,9.20
2009,09,20,06,04,9.30
2009,09,20,06,05,9.30
2009,09,20,06,06,9.30
2009,09,20,06,07,9.30
2009,09,20,06,08,9.30
2009,09,20,06,09,9.40
2009,09,20,06,10,9.40
2009,09,20,06,11,9.40
2009,09,20,06,12,9.40
2009,09,20,06,13,9.40
2009,09,20,06,14,9.30
2009,09,20,06,15,9.30
2009,09,20,06,16,9.30
2009,09,20,06,17,9.30
2009,09,20,06,18,9.30
2009,09,20,06,19,9.30
2009,09,20,06,20,9.30
2009,09,20,06,21,9.30
2009,09,20,06,22,9.30
2009,09,20,06,23,9.20
2009,09,20,06,24,9.20
2009,09,20,06,25,9.30
2009,09,20,06,26,9.30
2009,09,20,06,27,9.30
2009,09,20,06,28,9.30
2009,09,20,06,29,9.30
2009,09,20,06,30,9.30
2009,09,20,06,31,9.30
2009,09,20,06,32,9.30
2009,09,20,06,33,9.30
2009,09,20,06,34,9.30
2009,09,20,06,35,9.40
2009,09,20,06,36,9.40
2009,09,20,06,37,9.40
2009,09,20,06,38,9.50
2009,09,20,06,39,9.50
2009,09,20,06,40,9.50
2009,09,20,06,41,9.50
2009,09,20,06,42,9.50
2009,09,20,06,43,9.50
2009,09,20,06,44,9.50
2009,09,20,06,45,9.40
2009,09,20,06,46,9.40
2009,09,20,06,47,9.40
2009,09,20,06,48,9.40
2009,09,20,06,49,9.30
2009,09,20,06,50,9.30
2009,09,20,06,51,9.30
2009,09,20,06,52,9.20
2009,09,20,06,53,9.20
2009,09,20,06,54,9.20
2009,09,20,06,55,9.20
2009,09,20,06,56,9.10
2009,09,20,06,57,9.10
2009,09,20,06,58,9.10
2009,09,20,06,59,9.10
2009,09,20,07,00,9.10
2009,09,20,07,01,9.10
2009,09,20,07,02,9.10
2009,09,20,07,03,9.10
2009,09,20,07,04,9.20
2009,09,20,07,05,9.20
2009,09,20,07,06,9.20
2009,09,20,07,07,9.20
2009,09,20,07,08,9.10
2009,09,20,07,09,9.10
2009,09,20,07,10,9.10
2009,09,20,07,11,9.10
2009,09,20,07,12,9.00
2009,09,20,07,13,9.00
2009,09,20,07,14,9.00
2009,09,20,07,15,9.00
2009,09,20,07,16,9.00
2009,09,20,07,17,9.00
2009,09,20,07,18,9.00
2009,09,20,07,19,9.10
2009,09,20,07,20,9.10
2009,09,20,07,21,9.00
2009,09,20,07,22,9.00
2009,09,20,07,23,9.00
2009,09,20,07,24,9.00
2009,09,20,07,25,9.00
2009,09,20,07,26,8.90
2009,09,20,07,27,8.90
2009,09,20,07,28,9.00
2009,09,20,07,29,9.00
2009,09,20,07,30,9.00
2009,09,20,07,31,9.00
2009,09,20,07,32,9.10
2009,09,20,07,33,9.10
2009,09,20,07,34,9.20
2009,09,20,07,35,9.20
2009,09,20,07,36,9.30
2009,09,20,07,37,9.30
2009,09,20,07,38,9.40
2009,09,20,07,39,9.40
2009,09,20,07,40,9.40
2009,09,20,07,41,9.50
2009,09,20,07,42,9.50
2009,09,20,07,43,9.50
2009,09,20,07,44,9.60
2009,09,20,07,45,9.60
2009,09,20,07,46,9.70
2009,09,20,07,47,9.70
2009,09,20,07,48,9.80
2009,09,20,07,49,9.80
2009,09,20,07,50,9.80
2009,09,20,07,51,9.90
2009,09,20,07,52,10.00
2009,09,20,07,53,10.00
2009,09,20,07,54,10.10
2009,09,20,07,55,10.20
2009,09,20,07,56,10.30
2009,09,20,07,57,10.30
2009,09,20,07,58,10.40
2009,09,20,07,59,10.40
2009,09,20,08,00,10.50
2009,09,20,08,01,10.60
2009,09,20,08,02,10.70
2009,09,20,08,03,10.80
2009,09,20,08,04,10.90
2009,09,20,08,05,11.00
2009,09,20,08,06,11.00
2009,09,20,08,07,11.10
2009,09,20,08,08,11.10
2009,09,20,08,09,11.20
2009,09,20,08,10,11.20
2009,09,20,08,11,11.30
2009,09,20,08,12,11.40
2009,09,20,08,13,11.50
2009,09,20,08,14,11.60
2009,09,20,08,15,11.60
2009,09,20,08,16,11.70
2009,09,20,08,17,11.80
2009,09,20,08,18,11.80
2009,09,20,08,19,11.90
2009,09,20,08,20,11.90
2009,09,20,08,21,12.00
2009,09,20,08,22,12.10
2009,09,20,08,23,12.10
2009,09,20,08,24,12.20
2009,09,20,08,25,12.20
2009,09,20,08,26,12.30
2009,09,20,08,27,12.30
2009,09,20,08,28,12.40
2009,09,20,08,29,12.50
2009,09,20,08,30,12.50
2009,09,20,08,31,12.60
2009,09,20,08,32,12.60
2009,09,20,08,33,12.70
2009,09,20,08,34,12.70
2009,09,20,08,35,12.70
2009,09,20,08,36,12.80
2009,09,20,08,37,12.80
2009,09,20,08,38,12.80
2009,09,20,08,39,12.90
2009,09,20,08,40,12.90
2009,09,20,08,41,12.90
2009,09,20,08,42,12.90
2009,09,20,08,43,12.90
2009,09,20,08,44,13.00
2009,09,20,08,45,13.00
2009,09,20,08,46,13.00
2009,09,20,08,47,13.10
2009,09,20,08,48,13.10
2009,09,20,08,49,13.10
2009,09,20,08,50,13.10
2009,09,20,08,51,13.10
2009,09,20,08,52,13.20
2009,09,20,08,53,13.20
2009,09,20,08,54,13.20
2009,09,20,08,55,13.20
2009,09,20,08,56,13.20
2009,09,20,08,57,13.20
2009,09,20,08,58,13.20
2009,09,20,08,59,13.30
2009,09,20,09,00,13.30
2009,09,20,09,01,13.30
2009,09,20,09,02,13.30
2009,09,20,09,03,13.30
2009,09,20,09,04,13.30
2009,09,20,09,05,13.30
2009,09,20,09,06,13.30
2009,09,20,09,07,13.30
2009,09,20,09,08,13.40
2009,09,20,09,09,13.40
2009,09,20,09,10,13.40
2009,09,20,09,11,13.40
2009,09,20,09,12,13.40
2009,09,20,09,13,13.40
2009,09,20,09,14,13.40
2009,09,20,09,15,13.40
2009,09,20,09,16,13.40
2009,09,20,09,17,13.40
2009,09,20,09,18,13.40
2009,09,20,09,19,13.40
2009,09,20,09,20,13.40
2009,09,20,09,21,13.40
2009,09,20,09,22,13.40
2009,09,20,09,23,13.40
2009,09,20,09,24,13.40
2009,09,20,09,25,13.50
2009,09,20,09,26,13.50
2009,09,20,09,27,13.50
2009,09,20,09,28,13.60
2009,09,20,09,29,13.60
2009,09,20,09,30,13.60
2009,09,20,09,31,13.50
2009,09,20,09,32,13.60
2009,09,20,09,33,13.60
2009,09,20,09,34,13.50
2009,09,20,09,35,13.50
2009,09,20,09,36,13.60
2009,09,20,09,37,13.60
2009,09,20,09,38,13.60
2009,09,20,09,39,13.60
2009,09,20,09,40,13.70
2009,09,20,09,41,13.70
2009,09,20,09,42,13.80
2009,09,20,09,43,13.80
2009,09,20,09,44,13.80
2009,09,20,09,45,13.80
2009,09,20,09,46,13.90
2009,09,20,09,47,13.90
2009,09,20,09,48,13.90
2009,09,20,09,49,13.90
2009,09,20,09,50,13.90
2009,09,20,09,51,13.90
2009,09,20,09,52,13.90
2009,09,20,09,53,13.90
2009,09,20,09,54,14.00
2009,09,20,09,55,14.00
2009,09,20,09,56,14.00
2009,09,20,09,57,14.10
2009,09,20,09,58,14.10
2009,09,20,09,59,14.10
2009,09,20,10,00,14.20
2009,09,20,10,01,14.20
2009,09,20,10,02,14.20
2009,09,20,10,03,14.20
2009,09,20,10,04,14.20
2009,09,20,10,05,14.20
2009,09,20,10,06,14.20
2009,09,20,10,07,14.20
2009,09,20,10,08,14.20
2009,09,20,10,09,14.20
2009,09,20,10,10,14.20
2009,09,20,10,11,14.20
2009,09,20,10,12,14.20
2009,09,20,10,13,14.30
2009,09,20,10,14,14.30
2009,09,20,10,15,14.20
2009,09,20,10,16,14.20
2009,09,20,10,17,14.20
2009,09,20,10,18,14.30
2009,09,20,10,19,14.30
2009,09,20,10,20,14.30
2009,09,20,10,21,14.30
2009,09,20,10,22,14.30
2009,09,20,10,23,14.30
2009,09,20,10,24,14.30
2009,09,20,10,25,14.30
2009,09,20,10,26,14.40
2009,09,20,10,27,14.40
2009,09,20,10,28,14.40
2009,09,20,10,29,14.40
2009,09,20,10,30,14.40
2009,09,20,10,31,14.50
2009,09,20,10,32,14.50
2009,09,20,10,33,14.60
2009,09,20,10,34,14.60
2009,09,20,10,35,14.60
2009,09,20,10,36,14.60
2009,09,20,10,37,14.60
2009,09,20,10,38,14.60
2009,09,20,10,39,14.60
2009,09,20,10,40,14.60
2009,09,20,10,41,14.50
2009,09,20,10,42,14.50
2009,09,20,10,43,14.50
2009,09,20,10,44,14.50
2009,09,20,10,45,14.50
2009,09,20,10,46,14.50
2009,09,20,10,47,14.60
2009,09,20,10,48,14.60
2009,09,20,10,49,14.60
2009,09,20,10,50,14.70
2009,09,20,10,51,14.70
2009,09,20,10,52,14.70
2009,09,20,10,53,14.70
2009,09,20,10,54,14.70
2009,09,20,10,55,14.80
2009,09,20,10,56,14.80
2009,09,20,10,57,14.90
2009,09,20,10,58,14.90
2009,09,20,10,59,14.90
2009,09,20,11,00,14.80
2009,09,20,11,01,14.80
2009,09,20,11,02,14.70
2009,09,20,11,03,14.70
2009,09,20,11,04,14.70
2009,09,20,11,05,14.70
2009,09,20,11,06,14.60
2009,09,20,11,07,14.50
2009,09,20,11,08,14.50
2009,09,20,11,09,14.40
2009,09,20,11,10,14.40
2009,09,20,11,11,14.50
2009,09,20,11,12,14.60
2009,09,20,11,13,14.60
2009,09,20,11,14,14.60
2009,09,20,11,15,14.60
2009,09,20,11,16,14.60
2009,09,20,11,17,14.60
2009,09,20,11,18,14.70
2009,09,20,11,19,14.70
2009,09,20,11,20,14.70
2009,09,20,11,21,14.70
2009,09,20,11,22,14.70
2009,09,20,11,23,14.70
2009,09,20,11,24,14.60
2009,09,20,11,25,14.60
2009,09,20,11,26,14.60
2009,09,20,11,27,14.50
2009,09,20,11,28,14.50
2009,09,20,11,29,14.50
2009,09,20,11,30,14.50
2009,09,20,11,31,14.60
2009,09,20,11,32,14.60
2009,09,20,11,33,14.60
2009,09,20,11,34,14.60
2009,09,20,11,35,14.60
2009,09,20,11,36,14.60
2009,09,20,11,37,14.70
2009,09,20,11,38,14.80
2009,09,20,11,39,14.80
2009,09,20,11,40,14.80
2009,09,20,11,41,14.70
2009,09,20,11,42,14.70
2009,09,20,11,43,14.70
2009,09,20,11,44,14.70
2009,09,20,11,45,14.80
2009,09,20,11,46,14.90
2009,09,20,11,47,14.90
2009,09,20,11,48,14.80
2009,09,20,11,49,14.80
2009,09,20,11,50,14.90
2009,09,20,11,51,15.00
2009,09,20,11,52,15.00
2009,09,20,11,53,15.00
2009,09,20,11,54,14.90
2009,09,20,11,55,14.90
2009,09,20,11,56,14.90
2009,09,20,11,57,15.00
2009,09,20,11,58,15.00
2009,09,20,11,59,14.90
2009,09,20,12,00,14.80
2009,09,20,12,01,14.80
2009,09,20,12,02,14.80
2009,09,20,12,03,14.90
2009,09,20,12,04,14.90
2009,09,20,12,05,14.80
2009,09,20,12,06,14.90
2009,09,20,12,07,15.00
2009,09,20,12,08,15.00
2009,09,20,12,09,15.00
2009,09,20,12,10,15.00
2009,09,20,12,11,15.00
2009,09,20,12,12,15.00
2009,09,20,12,13,15.00
2009,09,20,12,14,15.00
2009,09,20,12,15,14.90
2009,09,20,12,16,15.00
2009,09,20,12,17,15.00
2009,09,20,12,18,15.00
2009,09,20,12,19,15.00
2009,09,20,12,20,15.00
2009,09,20,12,21,15.00
2009,09,20,12,22,15.00
2009,09,20,12,23,15.00
2009,09,20,12,24,15.00
2009,09,20,12,25,15.00
2009,09,20,12,26,15.00
2009,09,20,12,27,15.00
2009,09,20,12,28,15.00
2009,09,20,12,29,15.00
2009,09,20,12,30,15.10
2009,09,20,12,31,15.10
2009,09,20,12,32,15.10
2009,09,20,12,33,15.10
2009,09,20,12,34,15.10
2009,09,20,12,35,15.10
2009,09,20,12,36,15.20
2009,09,20,12,37,15.20
2009,09,20,12,38,15.30
2009,09,20,12,39,15.30
2009,09,20,12,40,15.50
2009,09,20,12,41,15.50
2009,09,20,12,42,15.60
2009,09,20,12,43,15.70
2009,09,20,12,44,15.70
2009,09,20,12,45,15.70
2009,09,20,12,46,15.80
2009,09,20,12,47,15.80
2009,09,20,12,48,15.80
2009,09,20,12,49,15.80
2009,09,20,12,50,15.80
2009,09,20,12,51,15.70
2009,09,20,12,52,15.70
2009,09,20,12,53,15.70
2009,09,20,12,54,15.70
2009,09,20,12,55,15.80
2009,09,20,12,56,15.80
2009,09,20,12,57,15.80
2009,09,20,12,58,15.80
2009,09,20,12,59,15.80
2009,09,20,13,00,15.80
2009,09,20,13,01,15.80
2009,09,20,13,02,15.80
2009,09,20,13,03,15.80
2009,09,20,13,04,15.80
2009,09,20,13,05,15.70
2009,09,20,13,06,15.70
2009,09,20,13,07,15.70
2009,09,20,13,08,15.70
2009,09,20,13,09,15.80
2009,09,20,13,10,15.80
2009,09,20,13,11,15.80
2009,09,20,13,12,15.80
2009,09,20,13,13,15.90
2009,09,20,13,14,15.90
2009,09,20,13,15,16.00
2009,09,20,13,16,16.10
2009,09,20,13,17,16.20
2009,09,20,13,18,16.30
2009,09,20,13,19,16.30
2009,09,20,13,20,16.20
2009,09,20,13,21,16.30
2009,09,20,13,22,16.20
2009,09,20,13,23,16.20
2009,09,20,13,24,16.20
2009,09,20,13,25,16.20
2009,09,20,13,26,16.20
2009,09,20,13,27,16.10
2009,09,20,13,28,16.10
2009,09,20,13,29,16.10
2009,09,20,13,30,16.10
2009,09,20,13,31,16.00
2009,09,20,13,32,16.00
2009,09,20,13,33,16.10
2009,09,20,13,34,16.00
2009,09,20,13,35,16.00
2009,09,20,13,36,15.90
2009,09,20,13,37,15.90
2009,09,20,13,38,15.90
2009,09,20,13,39,15.80
2009,09,20,13,40,15.80
2009,09,20,13,41,15.90
2009,09,20,13,42,15.90
2009,09,20,13,43,15.90
2009,09,20,13,44,16.00
2009,09,20,13,45,16.10
2009,09,20,13,46,16.20
2009,09,20,13,47,16.20
2009,09,20,13,48,16.20
2009,09,20,13,49,16.20
2009,09,20,13,50,16.20
2009,09,20,13,51,16.20
2009,09,20,13,52,16.20
2009,09,20,13,53,16.20
2009,09,20,13,54,16.20
2009,09,20,13,55,16.20
2009,09,20,13,56,16.20
2009,09,20,13,57,16.20
2009,09,20,13,58,16.20
2009,09,20,13,59,16.20
2009,09,20,14,00,16.20
2009,09,20,14,01,16.10
2009,09,20,14,02,16.10
2009,09,20,14,03,16.10
2009,09,20,14,04,16.10
2009,09,20,14,05,16.20
2009,09,20,14,06,16.20
2009,09,20,14,07,16.20
2009,09,20,14,08,16.30
2009,09,20,14,09,16.30
2009,09,20,14,10,16.20
2009,09,20,14,11,16.20
2009,09,20,14,12,16.10
2009,09,20,14,13,16.20
2009,09,20,14,14,16.20
2009,09,20,14,15,16.20
2009,09,20,14,16,16.20
2009,09,20,14,17,16.20
2009,09,20,14,18,16.20
2009,09,20,14,19,16.20
2009,09,20,14,20,16.30
2009,09,20,14,21,16.40
2009,09,20,14,22,16.40
2009,09,20,14,23,16.40
2009,09,20,14,24,16.50
2009,09,20,14,25,16.50
2009,09,20,14,26,16.50
2009,09,20,14,27,16.60
2009,09,20,14,28,16.60
2009,09,20,14,29,16.70
2009,09,20,14,30,16.70
2009,09,20,14,31,16.70
2009,09,20,14,32,16.70
2009,09,20,14,33,16.70
2009,09,20,14,34,16.70
2009,09,20,14,35,16.80
2009,09,20,14,36,16.80
2009,09,20,14,37,16.80
2009,09,20,14,38,16.80
2009,09,20,14,39,16.80
2009,09,20,14,40,16.80
2009,09,20,14,41,16.80
2009,09,20,14,42,16.90
2009,09,20,14,43,16.90
2009,09,20,14,44,17.00
2009,09,20,14,45,17.00
2009,09,20,14,46,17.10
2009,09,20,14,47,17.10
2009,09,20,14,48,17.00
2009,09,20,14,49,16.90
2009,09,20,14,50,16.80
2009,09,20,14,51,16.80
2009,09,20,14,52,16.80
2009,09,20,14,53,16.80
2009,09,20,14,54,16.90
2009,09,20,14,55,17.00
2009,09,20,14,56,17.00
2009,09,20,14,57,17.00
2009,09,20,14,58,17.00
2009,09,20,14,59,17.10
2009,09,20,15,00,17.10
2009,09,20,15,01,17.00
2009,09,20,15,02,17.00
2009,09,20,15,03,17.00
2009,09,20,15,04,17.10
2009,09,20,15,05,17.00
2009,09,20,15,06,17.00
2009,09,20,15,07,16.90
2009,09,20,15,08,16.90
2009,09,20,15,09,16.80
2009,09,20,15,10,16.80
2009,09,20,15,11,16.80
2009,09,20,15,12,16.90
2009,09,20,15,13,17.00
2009,09,20,15,14,17.00
2009,09,20,15,15,17.10
2009,09,20,15,16,17.10
2009,09,20,15,17,17.10
2009,09,20,15,18,17.20
2009,09,20,15,19,17.20
2009,09,20,15,20,17.20
2009,09,20,15,21,17.20
2009,09,20,15,22,17.10
2009,09,20,15,23,17.10
2009,09,20,15,24,17.10
2009,09,20,15,25,17.10
2009,09,20,15,26,17.20
2009,09,20,15,27,17.30
2009,09,20,15,28,17.30
2009,09,20,15,29,17.30
2009,09,20,15,30,17.40
2009,09,20,15,31,17.40
2009,09,20,15,32,17.50
2009,09,20,15,33,17.40
2009,09,20,15,34,17.40
2009,09,20,15,35,17.30
2009,09,20,15,36,17.30
2009,09,20,15,37,17.40
2009,09,20,15,38,17.40
2009,09,20,15,39,17.30
2009,09,20,15,40,17.30
2009,09,20,15,41,17.30
2009,09,20,15,42,17.30
2009,09,20,15,43,17.30
2009,09,20,15,44,17.30
2009,09,20,15,45,17.30
2009,09,20,15,46,17.40
2009,09,20,15,47,17.50
2009,09,20,15,48,17.60
2009,09,20,15,49,17.60
2009,09,20,15,50,17.60
2009,09,20,15,51,17.70
2009,09,20,15,52,17.70
2009,09,20,15,53,17.70
2009,09,20,15,54,17.70
2009,09,20,15,55,17.70
2009,09,20,15,56,17.70
2009,09,20,15,57,17.70
2009,09,20,15,58,17.70
2009,09,20,15,59,17.70
2009,09,20,16,00,17.70
2009,09,20,16,01,17.70
2009,09,20,16,02,17.80
2009,09,20,16,03,17.80
2009,09,20,16,04,17.80
2009,09,20,16,05,17.70
2009,09,20,16,06,17.70
2009,09,20,16,07,17.70
2009,09,20,16,08,17.60
2009,09,20,16,09,17.60
2009,09,20,16,10,17.60
2009,09,20,16,11,17.70
2009,09,20,16,12,17.70
2009,09,20,16,13,17.70
2009,09,20,16,14,17.70
2009,09,20,16,15,17.70
2009,09,20,16,16,17.70
2009,09,20,16,17,17.70
2009,09,20,16,18,17.70
2009,09,20,16,19,17.70
2009,09,20,16,20,17.70
2009,09,20,16,21,17.70
2009,09,20,16,22,17.70
2009,09,20,16,23,17.70
2009,09,20,16,24,17.70
2009,09,20,16,25,17.60
2009,09,20,16,26,17.60
2009,09,20,16,27,17.60
2009,09,20,16,28,17.60
2009,09,20,16,29,17.60
2009,09,20,16,30,17.70
2009,09,20,16,31,17.70
2009,09,20,16,32,17.60
2009,09,20,16,33,17.50
2009,09,20,16,34,17.40
2009,09,20,16,35,17.40
2009,09,20,16,36,17.40
2009,09,20,16,37,17.40
2009,09,20,16,38,17.40
2009,09,20,16,39,17.40
2009,09,20,16,40,17.40
2009,09,20,16,41,17.40
2009,09,20,16,42,17.40
2009,09,20,16,43,17.40
2009,09,20,16,44,17.40
2009,09,20,16,45,17.40
2009,09,20,16,46,17.40
2009,09,20,16,47,17.40
2009,09,20,16,48,17.40
2009,09,20,16,49,17.50
2009,09,20,16,50,17.50
2009,09,20,16,51,17.50
2009,09,20,16,52,17.40
2009,09,20,16,53,17.40
2009,09,20,16,54,17.40
2009,09,20,16,55,17.40
2009,09,20,16,56,17.40
2009,09,20,16,57,17.40
2009,09,20,16,58,17.50
2009,09,20,16,59,17.40
2009,09,20,17,00,17.40
2009,09,20,17,01,17.50
2009,09,20,17,02,17.50
2009,09,20,17,03,17.40
2009,09,20,17,04,17.40
2009,09,20,17,05,17.40
2009,09,20,17,06,17.30
2009,09,20,17,07,17.30
2009,09,20,17,08,17.30
2009,09,20,17,09,17.30
2009,09,20,17,10,17.30
2009,09,20,17,11,17.40
2009,09,20,17,12,17.40
2009,09,20,17,13,17.40
2009,09,20,17,14,17.50
2009,09,20,17,15,17.50
2009,09,20,17,16,17.50
2009,09,20,17,17,17.40
2009,09,20,17,18,17.40
2009,09,20,17,19,17.40
2009,09,20,17,20,17.40
2009,09,20,17,21,17.40
2009,09,20,17,22,17.40
2009,09,20,17,23,17.40
2009,09,20,17,24,17.40
2009,09,20,17,25,17.50
2009,09,20,17,26,17.60
2009,09,20,17,27,17.60